New York JFK, NY

9:21 AM EDT on September 23, 2017 (GMT -0400)
Kennedy International

Weather History for KJFK - January, 2013

Change the Weather History Date:

Tuesday, January 1, 2013

  Actual Average Record
Temperature  
Mean Temperature 34 °F 34 °F  
Max Temperature 41 °F 40 °F 62 °F (1966)
Min Temperature 27 °F 28 °F 9 °F (1968)
Degree Days  
Heating Degree Days 31 31  
Month to date heating degree days 31 31  
Since 1 July heating degree days 1582 1700  
Cooling Degree Days 0 0  
Month to date cooling degree days 0 0  
Year to date cooling degree days 0 0  
Moisture  
Dew Point 22 °F    
Average Humidity 52    
Maximum Humidity 64    
Minimum Humidity 40    
Precipitation  
Precipitation 0.00 in 0.10 in 1.18 in (2003)
Month to date precipitation 0.00 0.10  
Year to date precipitation 0.00 0.10  
Snow  
Snow 0.00 in 0.20 in 6.00 in (1971)
Month to date snowfall 0.0 0.2  
Since 1 July snowfall 4.7 5.1  
Snow Depth 0.00 in    
Sea Level Pressure  
Sea Level Pressure 29.92 in    
Wind  
Wind Speed 15 mph (WNW)    
Max Wind Speed 29 mph    
Max Gust Speed 37 mph    
Visibility 10 miles    
Events      
T = Trace of Precipitation, MM = Missing Value Source: NWS Daily Summary

Daily Weather History Graph

Daily Weather History Graph

Search for Another Location

Airport or City:

Trip Planner

Search our weather history database for the weather conditions in past years. The results will help you decide how hot, cold, wet, or windy it might be!

Date:

Astronomy

Jan. 01, 2013 Rise Set
Actual Time 7:18 AM EST 4:38 PM EST
Civil Twilight 6:48 AM EST 5:09 PM EST
Nautical Twilight 6:13 AM EST 5:43 PM EST
Astronomical Twilight 5:40 AM EST 6:17 PM EST
Moon 9:08 PM EST (1/1) 9:28 AM EST (1/1)
Length of Visible Light 10h 21m
Length of Day
9h 19m
Waning Gibbous, 83% of the Moon is Illuminated
Jan 1
Waning Gibbous
Jan 4
Last Quarter
Jan 11
New
Jan 18
First Quarter
Jan 26
Full

Hourly Weather History & Observations

Time (EST) Temp. Windchill Dew Point Humidity Pressure Visibility Wind Dir Wind Speed Gust Speed Precip Events Conditions
12:51 AM 39.9 °F 32.5 °F 26.1 °F 58% 29.90 in 10.0 mi WSW 12.7 mph - N/A   Overcast
1:51 AM 39.0 °F 31.4 °F 26.1 °F 60% 29.91 in 10.0 mi West 12.7 mph - N/A   Overcast
2:51 AM 39.0 °F 31.8 °F 26.1 °F 60% 29.90 in 10.0 mi West 11.5 mph - N/A   Overcast
3:51 AM 39.9 °F 31.8 °F 27.0 °F 60% 29.91 in 10.0 mi West 15.0 mph - N/A   Overcast
4:51 AM 39.9 °F 31.1 °F 28.0 °F 63% 29.91 in 10.0 mi WSW 17.3 mph - N/A   Overcast
5:51 AM 39.0 °F 30.6 °F 27.0 °F 62% 29.89 in 10.0 mi West 15.0 mph - N/A   Overcast
6:51 AM 37.9 °F 29.6 °F 27.0 °F 65% 29.91 in 10.0 mi West 13.8 mph - N/A   Mostly Cloudy
7:51 AM 39.0 °F 31.0 °F 28.0 °F 65% 29.90 in 10.0 mi West 13.8 mph - N/A   Overcast
8:51 AM 39.9 °F 31.1 °F 27.0 °F 60% 29.91 in 10.0 mi West 17.3 mph - N/A   Overcast
9:51 AM 39.9 °F 31.4 °F 27.0 °F 60% 29.92 in 10.0 mi West 16.1 mph - N/A   Overcast
10:51 AM 41.0 °F 32.8 °F 28.0 °F 60% 29.91 in 10.0 mi West 16.1 mph - N/A   Overcast
11:51 AM 41.0 °F 33.1 °F 27.0 °F 57% 29.88 in 10.0 mi West 15.0 mph - N/A   Overcast
12:51 PM 39.9 °F 31.1 °F 26.1 °F 58% 29.87 in 10.0 mi WNW 17.3 mph - N/A   Overcast
1:02 PM 37.4 °F 28.5 °F 26.6 °F 65% 29.87 in 10.0 mi NNW 15.0 mph - N/A   Overcast
1:51 PM 37.9 °F 30.5 °F 26.1 °F 62% 29.86 in 10.0 mi NW 11.5 mph - N/A   Overcast
2:51 PM 39.0 °F 31.8 °F 24.1 °F 55% 29.86 in 10.0 mi NW 11.5 mph - N/A   Overcast
3:51 PM 39.0 °F 31.4 °F 23.0 °F 53% 29.88 in 10.0 mi WNW 12.7 mph - N/A   Mostly Cloudy
4:51 PM 37.9 °F 28.5 °F 18.0 °F 45% 29.89 in 10.0 mi NW 17.3 mph 24.2 mph N/A   Mostly Cloudy
5:51 PM 37.0 °F 27.7 °F 17.1 °F 44% 29.92 in 10.0 mi NNW 16.1 mph 25.3 mph N/A   Mostly Cloudy
6:51 PM 35.1 °F 25.5 °F 14.0 °F 42% 29.95 in 10.0 mi NW 15.0 mph - N/A   Mostly Cloudy
7:51 PM 33.1 °F 23.4 °F 14.0 °F 46% 29.96 in 10.0 mi North 13.8 mph 24.2 mph N/A   Mostly Cloudy
8:51 PM 32.0 °F 21.2 °F 14.0 °F 48% 29.98 in 10.0 mi NNW 16.1 mph - N/A   Mostly Cloudy
9:51 PM 30.0 °F 16.9 °F 10.9 °F 45% 29.99 in 10.0 mi NNW 21.9 mph 29.9 mph N/A   Mostly Cloudy
10:51 PM 28.9 °F 17.3 °F 10.9 °F 47% 30.02 in 10.0 mi NW 16.1 mph - N/A   Overcast
11:51 PM 27.0 °F 13.2 °F 8.1 °F 45% 30.02 in 10.0 mi NW 20.7 mph 35.7 mph N/A   Overcast